Location: Spring Creek
(38.2870°N, 100.2160°W)
Time: 09:22:34
(UTC+00:00)

Cosmos 1633 Rocket - Pass Details

Date: 08 May 2021
Orbit: 608 x 622 km, 82.5° (Epoch: 21 June)

Event Time Altitude Azimuth Distance (km) Brightness Sun altitude
Rises 03:36:36 0° 358° (N) 2,894 7.2 -20.2°
Reaches altitude 10° 03:38:53 10° 3° (N) 1,987 6.2 -20.6°
Maximum altitude 03:43:10 51° 80° (E) 777 3.3 -21.2°
Enters shadow 03:43:23 51° 92° (E) 782 3.2 -21.2°
